Change the Weather History Date:

Thursday, June 19, 2014

  Actual Average (KGSB) Record (KGSB)
Temperature  
Mean Temperature 87 °F -  
Max Temperature 99 °F 86 °F 97 °F (2007)
Min Temperature 74 °F 67 °F 58 °F (2008)
Cooling Degree Days 22    
Growing Degree Days 37 (Base 50)    
Moisture  
Dew Point 69 °F    
Average Humidity 58    
Maximum Humidity 86    
Minimum Humidity 30    
Precipitation  
Precipitation 0.03 in - - ()
Sea Level Pressure  
Sea Level Pressure 30.05 in    
Wind  
Wind Speed 9 mph (SW)    
Max Wind Speed 13 mph    
Max Gust Speed 26 mph    
Visibility 10 miles    
Events Rain    
Averages and records for this station are not official NWS values.
T = Trace of Precipitation, MM = Missing Value Source: NWS Daily Summary

Daily Weather History Graph

Daily Weather History Graph

Search for Another Location

Airport or City:

Trip Planner

Search our weather history database for the weather conditions in past years. The results will help you decide how hot, cold, wet, or windy it might be!

Date:

Astronomy

Jun. 19, 2014 Rise Set
Actual Time 5:56 AM EDT 8:29 PM EDT
Civil Twilight 5:26 AM EDT 8:59 PM EDT
Nautical Twilight 4:49 AM EDT 9:37 PM EDT
Astronomical Twilight 4:08 AM EDT 10:18 PM EDT
Moon 12:45 AM EDT (6/19) 1:10 PM EDT (6/19)
Length of Visible Light 15h 33m
Length of Day
14h 33m
Waning Gibbous, 51% of the Moon is Illuminated
Jun 19
Waning Gibbous
Jun 19
Last Quarter
Jun 27
New
Jul 5
First Quarter
Jul 12
Full

Hourly Weather History & Observations

Time (EDT) Temp. Heat Index Dew Point Humidity Pressure Visibility Wind Dir Wind Speed Gust Speed Precip Events Conditions
12:15 AM 83.3 °F 87.9 °F 70.7 °F 66% 30.10 in 10.0 mi SW 8.1 mph - N/A   Clear
12:35 AM 83.3 °F 87.6 °F 70.5 °F 65% 30.10 in 10.0 mi SSW 11.5 mph - N/A   Clear
12:55 AM 82.6 °F 86.6 °F 70.2 °F 66% 30.09 in 10.0 mi SSW 12.7 mph - N/A   Clear
1:15 AM 82.0 °F 85.9 °F 70.2 °F 67% 30.09 in 10.0 mi SSW 10.4 mph - N/A   Clear
1:35 AM 81.7 °F 85.4 °F 70.0 °F 68% 30.09 in 10.0 mi SSW 10.4 mph - N/A   Clear
1:55 AM 81.1 °F 84.7 °F 70.0 °F 69% 30.09 in 10.0 mi SW 10.4 mph - N/A   Clear
2:15 AM 80.6 °F 83.9 °F 70.2 °F 70% 30.08 in 10.0 mi SSW 9.2 mph - N/A   Clear
2:35 AM 80.6 °F 83.9 °F 70.2 °F 70% 30.07 in 10.0 mi SSW 9.2 mph - N/A   Clear
2:55 AM 79.9 °F - 70.2 °F 72% 30.08 in 10.0 mi SW 8.1 mph - N/A   Clear
3:15 AM 79.7 °F - 70.7 °F 74% 30.08 in 10.0 mi SW 6.9 mph - N/A   Clear
3:35 AM 79.2 °F - 71.1 °F 76% 30.08 in 10.0 mi SW 6.9 mph - N/A   Clear
3:55 AM 79.0 °F - 70.9 °F 76% 30.07 in 10.0 mi SW 8.1 mph - N/A   Clear
4:15 AM 78.6 °F - 71.1 °F 78% 30.07 in 10.0 mi SSW 5.8 mph - N/A   Clear
4:35 AM 78.1 °F - 71.2 °F 79% 30.07 in 10.0 mi SSW 5.8 mph - N/A   Clear
4:55 AM 77.5 °F - 71.2 °F 81% 30.07 in 10.0 mi SSW 6.9 mph - N/A   Clear
5:15 AM 77.4 °F - 71.2 °F 81% 30.07 in 10.0 mi SSW 6.9 mph - N/A   Clear
6:15 AM 77.9 °F - 71.1 °F 79% 30.08 in 10.0 mi SW 9.2 mph - N/A   Clear
6:35 AM 77.9 °F - 70.9 °F 79% 30.08 in 10.0 mi SW 8.1 mph - N/A   Clear
6:55 AM 78.1 °F - 70.9 °F 78% 30.09 in 10.0 mi SW 10.4 mph - N/A   Clear
7:15 AM 78.3 °F - 71.1 °F 78% 30.10 in 10.0 mi SW 9.2 mph - N/A   Clear
7:35 AM 79.3 °F - 71.1 °F 76% 30.10 in 10.0 mi SW 10.4 mph - N/A   Clear
7:55 AM 80.6 °F 84.4 °F 71.1 °F 73% 30.10 in 10.0 mi SW 10.4 mph - N/A   Clear
8:15 AM 81.3 °F 85.2 °F 70.7 °F 70% 30.10 in 10.0 mi SW 10.4 mph - N/A   Clear
8:35 AM 82.9 °F 87.5 °F 70.9 °F 67% 30.10 in 10.0 mi WSW 11.5 mph - N/A   Clear
8:55 AM 83.8 °F 88.1 °F 70.2 °F 63% 30.11 in 10.0 mi WSW 9.2 mph - N/A   Clear
9:15 AM 84.7 °F 89.7 °F 70.7 °F 63% 30.10 in 10.0 mi WSW 10.4 mph - N/A   Clear
9:35 AM 86.0 °F 90.7 °F 70.3 °F 59% 30.11 in 10.0 mi WSW 10.4 mph - N/A   Clear
9:55 AM 86.7 °F 91.7 °F 70.2 °F 58% 30.10 in 10.0 mi West 9.2 mph - N/A   Clear
10:15 AM 88.2 °F 93.7 °F 70.9 °F 56% 30.10 in 10.0 mi SW 6.9 mph - N/A   Clear
10:55 AM 90.3 °F 95.2 °F 69.6 °F 50% 30.09 in 10.0 mi West 8.1 mph - N/A   Clear
11:15 AM 91.8 °F 97.0 °F 69.8 °F 48% 30.08 in 10.0 mi SW 10.4 mph - N/A   Clear
11:35 AM 92.7 °F 98.3 °F 69.8 °F 47% 30.08 in 10.0 mi SW 9.2 mph - N/A   Clear
11:55 AM 93.4 °F 98.1 °F 68.4 °F 44% 30.08 in 10.0 mi SW 10.4 mph 16.1 mph N/A   Clear
12:15 PM 94.1 °F 98.9 °F 68.5 °F 43% 30.08 in 10.0 mi SW 9.2 mph 16.1 mph N/A   Clear
12:35 PM 95.0 °F 100.1 °F 68.5 °F 42% 30.08 in 10.0 mi WSW 12.7 mph - N/A   Clear
12:55 PM 95.7 °F 100.3 °F 68.2 °F 40% 30.08 in 10.0 mi SW 9.2 mph - N/A   Clear
1:15 PM 96.4 °F 101.1 °F 67.5 °F 39% 30.07 in 10.0 mi SW 10.4 mph - N/A   Clear
1:35 PM 97.0 °F 101.0 °F 66.9 °F 37% 30.06 in 10.0 mi WSW 12.7 mph - N/A   Clear
1:55 PM 97.5 °F 102.0 °F 66.9 °F 37% 30.05 in 10.0 mi WSW 9.2 mph 17.3 mph N/A   Clear
2:15 PM 97.7 °F 101.7 °F 66.6 °F 36% 30.04 in 10.0 mi WSW 9.2 mph - N/A   Clear
2:35 PM 98.2 °F 101.6 °F 65.1 °F 34% 30.03 in 10.0 mi West 10.4 mph - N/A   Clear
2:55 PM 98.4 °F 100.7 °F 64.2 °F 32% 30.03 in 10.0 mi WSW 9.2 mph - N/A   Clear
3:15 PM 98.8 °F 101.9 °F 64.8 °F 33% 30.02 in 10.0 mi SW 9.2 mph - N/A   Clear
3:35 PM 98.6 °F 101.6 °F 65.3 °F 33% 30.01 in 10.0 mi SW 9.2 mph - N/A   Clear
3:55 PM 98.4 °F 99.7 °F 62.2 °F 30% 30.01 in 10.0 mi WSW 9.2 mph - N/A   Clear
4:15 PM 99.5 °F 101.5 °F 62.6 °F 30% 30.00 in 10.0 mi SW 10.4 mph - N/A   Clear
4:35 PM 99.5 °F 101.5 °F 63.0 °F 30% 30.00 in 10.0 mi West 9.2 mph - N/A   Clear
4:55 PM 99.7 °F 101.8 °F 63.3 °F 30% 29.99 in 10.0 mi SW 9.2 mph - N/A   Clear
5:15 PM 99.3 °F 101.7 °F 63.3 °F 31% 29.99 in 10.0 mi WSW 8.1 mph - N/A   Clear
5:35 PM 99.5 °F 102.0 °F 63.5 °F 31% 29.98 in 10.0 mi WSW 11.5 mph - N/A   Clear
5:55 PM 98.6 °F 100.5 °F 63.5 °F 31% 29.98 in 10.0 mi West 9.2 mph - N/A   Clear
6:15 PM 96.6 °F 99.2 °F 64.6 °F 35% 29.97 in 10.0 mi SW 8.1 mph - N/A   Clear
6:35 PM 95.9 °F 99.0 °F 65.8 °F 37% 29.97 in 10.0 mi SW 6.9 mph - N/A   Clear
6:55 PM 95.0 °F 98.5 °F 66.7 °F 39% 29.97 in 10.0 mi SW 5.8 mph - N/A   Clear
7:15 PM 93.2 °F 98.8 °F 69.6 °F 46% 29.98 in 10.0 mi WSW 3.5 mph - N/A   Scattered Clouds
7:35 PM 91.6 °F 97.7 °F 70.5 °F 50% 29.97 in 10.0 mi South 3.5 mph - N/A   Scattered Clouds
7:55 PM 90.0 °F 97.4 °F 72.5 °F 56% 29.98 in 10.0 mi Calm Calm - N/A   Clear
8:15 PM 89.6 °F 96.6 °F 72.1 °F 56% 29.98 in 10.0 mi Calm Calm - N/A   Mostly Cloudy
8:35 PM 88.3 °F 96.4 °F 73.2 °F 61% 29.97 in 7.0 mi Calm Calm - N/A Rain Light Rain
8:55 PM 84.2 °F 87.1 °F 67.6 °F 57% 29.97 in 7.0 mi South 5.8 mph 26.5 mph 0.03 in Rain Rain
9:15 PM 79.7 °F - 71.2 °F 75% 30.01 in 10.0 mi SW 8.1 mph - N/A Rain Light Rain
9:35 PM 77.4 °F - 68.2 °F 73% 30.01 in 10.0 mi SSW 11.5 mph 25.3 mph N/A   Mostly Cloudy
9:55 PM 76.5 °F - 70.7 °F 82% 30.03 in 10.0 mi SSW 4.6 mph - N/A   Mostly Cloudy
10:15 PM 77.2 °F - 70.5 °F 80% 30.02 in 10.0 mi SW 4.6 mph - N/A   Scattered Clouds
10:35 PM 76.6 °F - 70.5 °F 81% 30.02 in 10.0 mi Calm Calm - N/A   Clear
10:55 PM 75.9 °F - 71.1 °F 85% 30.03 in 10.0 mi SSE 3.5 mph - N/A   Clear
11:15 PM 75.2 °F - 70.7 °F 86% 30.04 in 10.0 mi Calm Calm - N/A   Clear
11:35 PM 74.3 °F - 69.8 °F 86% 30.03 in 10.0 mi Calm Calm - N/A   Mostly Cloudy